SIK0965 LIPE-LOWI

Flight info

Callsign SIK0965
Flight time 1h 17m
Altitude 14000
Route LUMAV L12 NAXAV M726 BRENO BRENO4B
Aircraft C208/L-SDFGR/C

Departure

Time 2026-04-30 19:16
Airport Bologna Guglielmo Marconi Airport (LIPE)

Arrival

Time 2026-04-30 20:33
Airport Innsbruck Airport (LOWI)
Time Latitude Longitude Altitude Speed Heading
2026-04-30 19:11 44.53600 11.27767 125 ft 0 kts 27°
2026-04-30 19:12 44.53601 11.27767 125 ft 0 kts 27°
2026-04-30 19:13 44.53654 11.27756 123 ft 13 kts 13°
2026-04-30 19:13 44.53721 11.27819 121 ft 12 kts 79°
2026-04-30 19:14 44.53674 11.27956 120 ft 20 kts 114°
2026-04-30 19:14 44.53708 11.28025 125 ft 13 kts
2026-04-30 19:14 44.53769 11.28116 124 ft 16 kts 75°
2026-04-30 19:14 44.53751 11.28297 126 ft 32 kts 112°
2026-04-30 19:15 44.53592 11.28784 187 ft 67 kts 101°
2026-04-30 19:15 44.54013 11.29920 488 ft 99 kts 29°
2026-04-30 19:15 44.54970 11.30501 718 ft 124 kts 13°
2026-04-30 19:16 44.55557 11.30558 849 ft 131 kts
2026-04-30 19:16 44.56496 11.30530 1096 ft 138 kts
2026-04-30 19:16 44.58460 11.30691 1655 ft 144 kts
2026-04-30 19:17 44.59458 11.30843 1976 ft 144 kts
2026-04-30 19:17 44.61526 11.31199 2277 ft 162 kts 10°
2026-04-30 19:17 44.62678 11.31050 2284 ft 175 kts 340°
2026-04-30 19:18 44.64493 11.29638 2291 ft 183 kts 333°
2026-04-30 19:18 44.66000 11.28467 2290 ft 186 kts 334°
2026-04-30 19:18 44.67147 11.27600 2290 ft 188 kts 334°
2026-04-30 19:19 44.68303 11.26737 2289 ft 189 kts 334°
2026-04-30 19:19 44.69464 11.25874 2289 ft 189 kts 334°
2026-04-30 19:19 44.71786 11.24154 2286 ft 189 kts 334°
2026-04-30 19:20 44.72951 11.23292 2283 ft 189 kts 334°
2026-04-30 19:20 44.74117 11.22427 2283 ft 190 kts 334°
2026-04-30 19:20 44.76453 11.20697 2289 ft 190 kts 334°
2026-04-30 19:21 44.77607 11.19840 2291 ft 190 kts 334°
2026-04-30 19:21 44.79961 11.18093 2297 ft 190 kts 335°
2026-04-30 19:22 44.82290 11.16364 2284 ft 190 kts 334°
2026-04-30 19:22 44.85788 11.13761 2276 ft 189 kts 335°
2026-04-30 19:23 44.89285 11.11157 2286 ft 190 kts 335°
2026-04-30 19:24 44.91625 11.09410 2280 ft 190 kts 335°
2026-04-30 19:24 44.92798 11.08536 2280 ft 191 kts 335°
2026-04-30 19:24 44.95139 11.06788 2278 ft 190 kts 335°
2026-04-30 19:25 44.98642 11.04168 2271 ft 190 kts 335°
2026-04-30 19:26 45.00978 11.02420 2293 ft 190 kts 335°
2026-04-30 19:26 45.03319 11.00668 2287 ft 190 kts 335°
2026-04-30 19:26 45.04486 10.99790 2284 ft 190 kts 335°
2026-04-30 19:27 45.06813 10.98044 2290 ft 189 kts 335°
2026-04-30 19:27 45.09143 10.96295 2295 ft 190 kts 335°
2026-04-30 19:28 45.10308 10.95420 2294 ft 190 kts 335°
2026-04-30 19:28 45.12643 10.93664 2293 ft 190 kts 335°
2026-04-30 19:29 45.14977 10.91907 2294 ft 190 kts 335°
2026-04-30 19:29 45.16145 10.91028 2293 ft 190 kts 335°
2026-04-30 19:30 45.19645 10.88389 2291 ft 190 kts 335°
2026-04-30 19:30 45.21974 10.86629 2284 ft 189 kts 335°
2026-04-30 19:31 45.24296 10.84876 2284 ft 189 kts 335°
2026-04-30 19:31 45.25459 10.83997 2284 ft 190 kts 335°
2026-04-30 19:31 45.27794 10.82230 2294 ft 191 kts 335°
2026-04-30 19:32 45.28968 10.81343 2297 ft 191 kts 335°
2026-04-30 19:32 45.30144 10.80451 2299 ft 192 kts 335°
2026-04-30 19:32 45.31321 10.79558 2299 ft 192 kts 335°
2026-04-30 19:32 45.32502 10.78663 2298 ft 193 kts 335°
2026-04-30 19:33 45.33685 10.77766 2296 ft 193 kts 335°
2026-04-30 19:33 45.34870 10.76868 2295 ft 193 kts 335°
2026-04-30 19:33 45.36055 10.75967 2296 ft 193 kts 335°
2026-04-30 19:33 45.37240 10.75067 2295 ft 193 kts 335°
2026-04-30 19:34 45.38426 10.74165 2294 ft 193 kts 335°
2026-04-30 19:34 45.39612 10.73263 2298 ft 193 kts 335°
2026-04-30 19:34 45.41975 10.71466 2284 ft 192 kts 334°
2026-04-30 19:35 45.43149 10.70572 2284 ft 191 kts 335°
2026-04-30 19:35 45.44322 10.69676 2288 ft 191 kts 335°
2026-04-30 19:35 45.45547 10.69124 2288 ft 182 kts 353°
2026-04-30 19:35 45.46787 10.68809 2289 ft 180 kts 354°
2026-04-30 19:36 45.48020 10.68558 2279 ft 177 kts 354°
2026-04-30 19:36 45.49240 10.68355 2287 ft 176 kts 355°
2026-04-30 19:36 45.51675 10.67989 2296 ft 176 kts 355°
2026-04-30 19:37 45.52898 10.67816 2296 ft 177 kts 356°
2026-04-30 19:37 45.54128 10.67633 2294 ft 178 kts 355°
2026-04-30 19:37 45.55361 10.67455 2292 ft 178 kts 356°
2026-04-30 19:37 45.56590 10.67281 2285 ft 177 kts 355°
2026-04-30 19:38 45.57798 10.67117 2277 ft 176 kts 355°
2026-04-30 19:38 45.59017 10.67005 2277 ft 175 kts
2026-04-30 19:38 45.60233 10.67071 2281 ft 175 kts
2026-04-30 19:38 45.61417 10.67424 2280 ft 174 kts 16°
2026-04-30 19:39 45.62581 10.67901 2287 ft 174 kts 18°
2026-04-30 19:39 45.63737 10.68417 2291 ft 174 kts 19°
2026-04-30 19:39 45.64894 10.68941 2286 ft 174 kts 20°
2026-04-30 19:39 45.66042 10.69507 2284 ft 174 kts 25°
2026-04-30 19:40 45.67147 10.70240 2289 ft 176 kts 27°
2026-04-30 19:40 45.68243 10.71053 2291 ft 178 kts 28°
2026-04-30 19:40 45.69338 10.71896 2348 ft 177 kts 29°
2026-04-30 19:40 45.70408 10.72727 2478 ft 173 kts 30°
2026-04-30 19:41 45.71457 10.73544 2598 ft 171 kts 30°
2026-04-30 19:41 45.72495 10.74357 2727 ft 169 kts 30°
2026-04-30 19:41 45.73527 10.75158 2838 ft 168 kts 29°
2026-04-30 19:41 45.74558 10.75950 2951 ft 168 kts 30°
2026-04-30 19:42 45.75577 10.76730 3077 ft 168 kts 30°
2026-04-30 19:42 45.76608 10.77522 3200 ft 168 kts 30°
2026-04-30 19:42 45.77632 10.78319 3328 ft 167 kts 30°
2026-04-30 19:42 45.78656 10.79114 3467 ft 167 kts 30°
2026-04-30 19:43 45.79681 10.79901 3597 ft 167 kts 30°
2026-04-30 19:43 45.80701 10.80691 3740 ft 166 kts 29°
2026-04-30 19:43 45.81714 10.81482 3878 ft 165 kts 30°
2026-04-30 19:44 45.83755 10.83080 4010 ft 171 kts 30°
2026-04-30 19:44 45.84806 10.83908 4024 ft 173 kts 30°
2026-04-30 19:44 45.85871 10.84748 4046 ft 176 kts 30°
2026-04-30 19:44 45.86927 10.85585 4177 ft 172 kts 30°
2026-04-30 19:45 45.87965 10.86403 4311 ft 169 kts 30°
2026-04-30 19:45 45.88993 10.87213 4423 ft 168 kts 30°
2026-04-30 19:45 45.90023 10.88028 4481 ft 170 kts 30°
2026-04-30 19:45 45.91066 10.88857 4514 ft 173 kts 30°
2026-04-30 19:46 45.92129 10.89703 4530 ft 176 kts 30°
2026-04-30 19:46 45.93210 10.90563 4541 ft 179 kts 29°
2026-04-30 19:46 45.94299 10.91434 4537 ft 180 kts 30°
2026-04-30 19:46 45.95393 10.92312 4523 ft 180 kts 30°
2026-04-30 19:47 45.96480 10.93186 4511 ft 178 kts 30°
2026-04-30 19:47 45.97177 10.93803 4514 ft 177 kts 39°
2026-04-30 19:47 45.98411 10.95361 4516 ft 176 kts 44°
2026-04-30 19:47 45.99299 10.96577 4527 ft 176 kts 44°
2026-04-30 19:48 46.00286 10.97644 4536 ft 179 kts 32°
2026-04-30 19:48 46.01439 10.98352 4540 ft 182 kts 18°
2026-04-30 19:48 46.02661 10.98872 4541 ft 184 kts 15°
2026-04-30 19:48 46.03900 10.99342 4540 ft 184 kts 14°
2026-04-30 19:49 46.05068 11.00072 4539 ft 184 kts 30°
2026-04-30 19:49 46.07080 11.02293 4534 ft 182 kts 51°
2026-04-30 19:49 46.07677 11.03865 4528 ft 179 kts 77°
2026-04-30 19:50 46.07911 11.05591 4530 ft 177 kts 90°
2026-04-30 19:50 46.07731 11.07325 4537 ft 175 kts 111°
2026-04-30 19:50 46.07143 11.08833 4542 ft 172 kts 133°
2026-04-30 19:50 46.06187 11.09828 4544 ft 170 kts 156°
2026-04-30 19:51 46.05078 11.10435 4544 ft 171 kts 163°
2026-04-30 19:51 46.03935 11.10939 4539 ft 172 kts 166°
2026-04-30 19:51 46.02762 11.11264 4540 ft 172 kts 173°
2026-04-30 19:51 46.01568 11.11311 4536 ft 173 kts 186°
2026-04-30 19:52 46.00388 11.10982 4537 ft 173 kts 193°
2026-04-30 19:52 45.99236 11.10512 4535 ft 172 kts 206°
2026-04-30 19:52 45.98231 11.09581 4536 ft 171 kts 210°
2026-04-30 19:52 45.97096 11.09280 4535 ft 171 kts 168°
2026-04-30 19:53 45.96146 11.10256 4533 ft 175 kts 124°
2026-04-30 19:53 45.95935 11.11958 4539 ft 180 kts 81°
2026-04-30 19:53 45.96683 11.13220 4790 ft 172 kts 21°
2026-04-30 19:53 45.97955 11.13315 4215 ft 201 kts 351°
2026-04-30 19:54 45.99359 11.13119 4146 ft 193 kts
2026-04-30 19:54 46.00630 11.13341 4357 ft 179 kts
2026-04-30 19:54 46.01858 11.13280 4453 ft 176 kts 354°
2026-04-30 19:54 46.03067 11.12975 4505 ft 178 kts 346°
2026-04-30 19:55 46.04278 11.12527 4523 ft 181 kts 343°
2026-04-30 19:55 46.05498 11.12028 4529 ft 183 kts 342°
2026-04-30 19:55 46.06743 11.11606 4531 ft 185 kts 348°
2026-04-30 19:55 46.08020 11.11317 4532 ft 186 kts 351°
2026-04-30 19:56 46.09310 11.11093 4534 ft 187 kts 353°
2026-04-30 19:56 46.10605 11.10897 4534 ft 187 kts 354°
2026-04-30 19:56 46.11904 11.10710 4532 ft 188 kts 354°
2026-04-30 19:56 46.13210 11.10533 4537 ft 189 kts 355°
2026-04-30 19:57 46.14516 11.10600 4531 ft 188 kts
2026-04-30 19:57 46.15798 11.10971 4535 ft 188 kts 14°
2026-04-30 19:57 46.17064 11.11462 4534 ft 188 kts 17°
2026-04-30 19:57 46.18321 11.11998 4531 ft 188 kts 17°
2026-04-30 19:58 46.19555 11.12547 4530 ft 188 kts 19°
2026-04-30 19:58 46.20774 11.13235 4534 ft 188 kts 24°
2026-04-30 19:58 46.21893 11.14185 4533 ft 186 kts 37°
2026-04-30 19:58 46.22920 11.15326 4528 ft 186 kts 41°
2026-04-30 19:59 46.23903 11.16542 4530 ft 186 kts 43°
2026-04-30 19:59 46.24878 11.17780 4532 ft 187 kts 43°
2026-04-30 19:59 46.26825 11.20287 4550 ft 188 kts 42°
2026-04-30 20:00 46.27817 11.21523 4530 ft 188 kts 42°
2026-04-30 20:00 46.28813 11.22746 4530 ft 188 kts 41°
2026-04-30 20:00 46.29808 11.23969 4537 ft 188 kts 41°
2026-04-30 20:00 46.30824 11.25151 4521 ft 188 kts 37°
2026-04-30 20:01 46.33076 11.27081 4519 ft 189 kts 29°
2026-04-30 20:01 46.34240 11.27966 4520 ft 189 kts 28°
2026-04-30 20:01 46.35405 11.28827 4488 ft 187 kts 29°
2026-04-30 20:02 46.37824 11.30126 4507 ft 186 kts 18°
2026-04-30 20:02 46.39058 11.30671 4510 ft 185 kts 19°
2026-04-30 20:03 46.41519 11.31735 4537 ft 184 kts 18°
2026-04-30 20:03 46.42747 11.32293 4522 ft 185 kts 18°
2026-04-30 20:03 46.43975 11.32856 4515 ft 185 kts 18°
2026-04-30 20:03 46.45202 11.33408 4512 ft 184 kts 15°
2026-04-30 20:04 46.46028 11.33694 4515 ft 184 kts 12°
2026-04-30 20:04 46.47286 11.34063 4508 ft 184 kts 11°
2026-04-30 20:04 46.48524 11.34515 4500 ft 183 kts 23°
2026-04-30 20:05 46.49983 11.37307 4504 ft 179 kts 83°
2026-04-30 20:05 46.50044 11.39104 4517 ft 179 kts 89°
2026-04-30 20:05 46.50330 11.42720 4523 ft 182 kts 80°
2026-04-30 20:06 46.50708 11.44474 4513 ft 183 kts 66°
2026-04-30 20:06 46.51286 11.46118 4507 ft 183 kts 62°
2026-04-30 20:06 46.51913 11.47721 4510 ft 183 kts 60°
2026-04-30 20:06 46.52574 11.49302 4505 ft 182 kts 54°
2026-04-30 20:07 46.53593 11.50374 4497 ft 182 kts 28°
2026-04-30 20:07 46.54745 11.51131 4499 ft 182 kts 21°
2026-04-30 20:07 46.57136 11.52361 4491 ft 182 kts 19°
2026-04-30 20:08 46.58337 11.52939 4491 ft 182 kts 18°
2026-04-30 20:08 46.59538 11.53511 4485 ft 181 kts 18°
2026-04-30 20:08 46.60726 11.54117 4503 ft 181 kts 23°
2026-04-30 20:08 46.61864 11.54910 4496 ft 182 kts 28°
2026-04-30 20:09 46.62977 11.55777 4493 ft 181 kts 29°
2026-04-30 20:09 46.64067 11.56696 4501 ft 181 kts 36°
2026-04-30 20:09 46.65989 11.59076 4513 ft 180 kts 43°
2026-04-30 20:10 46.67806 11.61522 4509 ft 176 kts 44°
2026-04-30 20:10 46.68698 11.62740 4508 ft 175 kts 44°
2026-04-30 20:10 46.69622 11.63887 4506 ft 175 kts 37°
2026-04-30 20:11 46.71688 11.65651 4482 ft 171 kts 10°
2026-04-30 20:11 46.72870 11.65740 4489 ft 171 kts 358°
2026-04-30 20:11 46.74052 11.65609 4497 ft 169 kts 354°
2026-04-30 20:12 46.76359 11.65218 4495 ft 165 kts 352°
2026-04-30 20:12 46.77449 11.64805 4490 ft 162 kts 325°
2026-04-30 20:12 46.78074 11.63498 4498 ft 159 kts 289°
2026-04-30 20:13 46.78544 11.62044 4507 ft 159 kts 296°
2026-04-30 20:13 46.79087 11.60631 4502 ft 160 kts 301°
2026-04-30 20:13 46.79683 11.59266 4499 ft 159 kts 303°
2026-04-30 20:13 46.80275 11.57899 4496 ft 159 kts 302°
2026-04-30 20:14 46.80835 11.56515 4497 ft 158 kts 301°
2026-04-30 20:14 46.81377 11.55147 4491 ft 157 kts 303°
2026-04-30 20:14 46.82135 11.54033 4469 ft 154 kts 323°
2026-04-30 20:14 46.83018 11.53171 4480 ft 153 kts 330°
2026-04-30 20:15 46.83949 11.52422 4490 ft 153 kts 331°
2026-04-30 20:15 46.84862 11.51618 4496 ft 154 kts 326°
2026-04-30 20:15 46.85652 11.50570 4492 ft 154 kts 312°
2026-04-30 20:15 46.86326 11.49321 4496 ft 161 kts 307°
2026-04-30 20:16 46.86878 11.47878 4486 ft 165 kts 296°
2026-04-30 20:16 46.87357 11.46329 4489 ft 169 kts 295°
2026-04-30 20:16 46.87834 11.44743 4484 ft 171 kts 295°
2026-04-30 20:16 46.88300 11.43138 4481 ft 172 kts 294°
2026-04-30 20:17 46.88575 11.41450 4483 ft 172 kts 282°
2026-04-30 20:17 46.88826 11.39746 4471 ft 171 kts 284°
2026-04-30 20:17 46.89111 11.38085 4591 ft 163 kts 285°
2026-04-30 20:17 46.89395 11.36526 4833 ft 155 kts 289°
2026-04-30 20:18 46.89778 11.35093 5103 ft 149 kts 296°
2026-04-30 20:18 46.90292 11.33812 5337 ft 144 kts 304°
2026-04-30 20:18 46.90862 11.32636 5553 ft 139 kts 310°
2026-04-30 20:18 46.91433 11.31527 5817 ft 131 kts 295°
2026-04-30 20:19 46.91391 11.30287 5990 ft 135 kts 230°
2026-04-30 20:19 46.90501 11.30282 5822 ft 157 kts 131°
2026-04-30 20:19 46.90011 11.31755 5828 ft 163 kts 112°
2026-04-30 20:19 46.89630 11.33209 6251 ft 140 kts 109°
2026-04-30 20:20 46.89445 11.34477 6226 ft 121 kts 96°
2026-04-30 20:20 46.89330 11.35705 5889 ft 125 kts 98°
2026-04-30 20:20 46.89155 11.36969 5683 ft 129 kts 103°
2026-04-30 20:20 46.88867 11.38354 5524 ft 157 kts 108°
2026-04-30 20:21 46.88533 11.39906 5498 ft 154 kts 94°
2026-04-30 20:21 46.88939 11.41232 5589 ft 144 kts 47°
2026-04-30 20:21 46.89671 11.42243 5593 ft 146 kts 37°
2026-04-30 20:21 46.90542 11.43022 5593 ft 148 kts 27°
2026-04-30 20:22 46.91471 11.43678 5582 ft 150 kts 22°
2026-04-30 20:22 46.92475 11.44081 5601 ft 149 kts 11°
2026-04-30 20:22 46.93497 11.44393 5609 ft 151 kts 13°
2026-04-30 20:22 46.94481 11.44840 5672 ft 148 kts 25°
2026-04-30 20:23 46.95361 11.45632 5787 ft 149 kts 38°
2026-04-30 20:23 46.96156 11.46612 5877 ft 151 kts 41°
2026-04-30 20:23 46.96954 11.47648 5915 ft 153 kts 42°
2026-04-30 20:23 46.97796 11.48699 5795 ft 165 kts 37°
2026-04-30 20:24 46.98778 11.49557 5839 ft 164 kts 26°
2026-04-30 20:24 46.99828 11.50179 5903 ft 161 kts 18°
2026-04-30 20:24 47.00931 11.50430 5960 ft 163 kts 358°
2026-04-30 20:24 47.02010 11.50074 6068 ft 162 kts 341°
2026-04-30 20:25 47.04289 11.48742 5538 ft 186 kts 345°
2026-04-30 20:25 47.05551 11.48403 5386 ft 184 kts 351°
2026-04-30 20:26 47.08051 11.47466 5131 ft 185 kts 345°
2026-04-30 20:26 47.10511 11.46362 4802 ft 187 kts 342°
2026-04-30 20:26 47.11777 11.45902 4656 ft 187 kts 351°
2026-04-30 20:27 47.14279 11.45347 4588 ft 179 kts 343°
2026-04-30 20:27 47.16495 11.43844 4603 ft 172 kts 332°
2026-04-30 20:28 47.18551 11.42161 4698 ft 167 kts 325°
2026-04-30 20:28 47.20215 11.40055 4997 ft 159 kts 318°
2026-04-30 20:29 47.21712 11.37562 4978 ft 168 kts 308°
2026-04-30 20:30 47.23218 11.32765 4570 ft 185 kts 276°
2026-04-30 20:30 47.23314 11.27793 4136 ft 133 kts 291°
2026-04-30 20:31 47.25795 11.26344 2987 ft 130 kts 44°
2026-04-30 20:32 47.25630 11.29992 2393 ft 116 kts 91°
2026-04-30 20:32 47.25759 11.32000 2154 ft 88 kts 81°
2026-04-30 20:33 47.25859 11.32896 2003 ft 89 kts 81°
2026-04-30 20:33 47.26023 11.34428 1898 ft 55 kts 81°
2026-04-30 20:33 47.26072 11.34890 1898 ft 38 kts 82°
2026-04-30 20:34 47.26058 11.35259 1898 ft 11 kts 173°
2026-04-30 20:34 47.25928 11.35304 1895 ft 3 kts 120°
2026-04-30 20:35 47.25927 11.35309 1896 ft 3 kts 113°
2026-04-30 20:35 47.25890 11.35373 1898 ft 0 kts 273°
2026-04-30 20:40 47.25891 11.35366 1890 ft 0 kts 276°